RH
59 57 58 57 70 87 85 90 98 98 95 93 92 93 88 76 74 67 67 73 77 77 58 47 46 46 41 41 59 76 72 43 25 28 36 34 28 31 28 22 22 24 28 30 29 29 30 30 31 31 33 36 39 42 42 42 45 45 40 34 35 41 45 47 47 47 48 50 52 55 58 58 55 54 50 44 44 37 29 21 27 39 33 30 35 32 29 40 42 49 58 43 44 47 48 46 41
60 58 58 58 68 82 85 90 94 96 93 89 89 88 81 70 68 66 62 62 69 71 53 47 49 43 32 29 48 67 58 31 21 29 39 35 22 21 24 23 24 26 28 30 29 29 30 30 30 31 33 36 40 41 40 40 41 39 35 34 39 45 48 47 45 46 49 53 55 58 63 65 63 64 60 52 53 47 39 31 29 36 37 30 38 48 38 46 47 48 56 42 44 38 35 48 47
60 57 56 62 72 85 91 93 91 93 94 86 85 81 74 68 66 61 56 63 64 56 52 54 55 45 29 26 36 42 32 19 19 30 38 30 19 18 23 25 24 27 28 28 28 26 27 27 28 28 30 34 37 38 36 35 36 34 32 32 37 42 44 41 42 46 49 54 56 58 63 68 67 66 63 55 56 54 48 41 38 38 37 36 47 61 46 46 52 51 53 41 42 38 37 49 52
60 58 57 61 75 89 86 87 92 93 96 90 86 81 73 63 59 58 57 67 64 50 48 52 52 37 24 24 22 23 20 18 19 27 33 24 18 19 21 24 24 25 25 25 25 25 25 26 26 26 27 29 31 32 30 29 30 30 28 28 31 33 35 35 41 47 50 55 57 60 62 67 66 64 62 57 57 56 53 49 49 47 46 50 54 63 56 44 46 52 53 43 41 42 46 55 56
61 58 56 55 68 85 80 83 94 92 93 94 92 84 74 61 54 61 66 67 64 58 50 47 50 37 29 25 14 16 20 21 19 21 29 21 17 19 19 21 23 23 24 25 25 25 26 27 26 24 23 23 24 25 23 24 26 27 26 25 26 27 30 36 41 45 49 54 59 62 62 62 63 63 63 61 62 60 57 58 66 67 63 67 60 61 73 61 46 50 51 48 47 50 57 62 59
57 51 53 57 70 82 82 90 95 89 90 97 97 88 78 66 62 67 66 63 67 69 58 48 49 40 33 26 12 12 19 24 20 16 22 20 17 18 19 20 22 23 24 25 25 26 27 26 23 20 18 17 19 20 19 20 21 23 24 25 24 26 34 40 42 45 50 54 59 60 59 58 60 63 64 65 65 63 61 63 74 78 72 75 69 64 78 72 51 50 53 56 57 61 70 69 60
48 46 55 68 82 82 83 93 92 90 93 97 96 93 87 73 70 72 63 64 69 64 55 45 41 36 27 23 20 16 18 22 17 15 18 20 21 18 18 21 22 24 25 25 25 25 24 21 17 14 13 14 16 16 16 15 16 19 23 26 24 27 35 40 42 47 52 55 58 57 57 59 61 62 63 65 64 62 62 64 70 76 74 73 73 66 72 71 59 60 64 68 68 70 75 69 61
41 52 65 76 89 86 87 91 86 91 97 97 95 91 89 81 79 75 66 67 66 57 54 48 38 34 26 25 28 22 18 19 16 13 15 19 22 19 19 21 23 25 25 25 25 23 19 15 12 11 12 13 13 12 12 12 14 19 25 26 25 28 33 38 42 47 51 55 56 55 57 59 58 57 56 57 59 58 59 61 62 66 70 70 70 67 67 68 68 72 74 76 74 73 72 67 64
43 64 78 80 88 90 89 88 86 93 96 97 98 90 83 86 86 78 71 67 65 63 62 53 39 32 26 25 25 25 20 15 15 11 12 15 16 19 20 21 22 25 25 24 24 19 15 12 12 12 12 12 13 13 13 14 17 23 26 26 27 30 32 37 42 44 46 49 50 51 53 53 50 48 48 49 50 52 56 59 60 61 63 64 64 63 63 66 70 74 78 81 78 75 73 69 66
52 70 84 83 84 91 87 85 86 90 95 95 96 94 84 83 83 79 75 72 74 71 64 53 41 28 23 29 23 21 20 13 14 11 12 12 16 25 26 23 21 24 25 23 21 15 13 12 13 13 11 11 13 16 17 18 21 23 24 27 29 31 33 36 39 40 40 42 43 45 45 45 45 46 48 49 48 52 61 64 66 70 69 68 67 66 66 67 70 72 76 79 76 72 69 67 66
67 72 83 88 85 88 86 87 86 84 93 93 94 97 87 83 87 83 73 75 78 67 61 53 41 23 21 40 27 12 14 13 14 11 14 14 21 31 29 25 21 24 25 21 17 13 13 14 15 13 10 9 10 14 17 19 19 22 24 28 31 33 34 34 36 34 32 34 37 40 43 46 49 51 52 51 51 58 66 67 69 73 73 71 66 61 60 61 65 67 69 69 65 62 59 56 55
76 77 82 89 87 85 83 91 91 85 90 92 94 94 88 91 95 85 71 76 78 62 61 55 37 21 26 44 25 8 13 13 14 15 21 21 24 32 28 25 22 25 24 19 14 12 15 16 17 14 9 8 10 15 15 16 18 21 25 29 32 33 34 34 35 32 27 29 35 44 50 53 54 54 54 52 54 58 62 64 64 63 60 57 52 49 50 54 56 57 55 52 50 48 43 37 34
74 75 79 85 89 88 85 91 93 91 92 93 95 94 93 95 90 80 76 85 80 63 66 59 33 21 29 35 17 9 12 12 15 18 29 30 29 34 26 22 24 26 25 18 14 14 19 19 19 15 9 8 10 13 13 15 17 20 25 29 31 32 36 37 36 35 31 29 35 47 53 56 55 53 52 49 52 56 55 55 55 49 42 38 38 39 40 43 42 41 37 34 33 31 28 25 23
65 69 78 83 88 88 84 86 88 93 93 94 98 97 95 93 88 84 83 85 80 68 67 59 34 22 23 21 13 13 10 15 24 21 28 33 33 35 26 22 25 27 24 17 14 17 22 24 23 14 8 9 10 10 11 13 17 22 27 29 31 32 37 39 39 38 35 32 33 44 52 54 53 50 47 44 45 47 43 43 44 37 28 26 27 27 27 29 28 27 25 24 23 22 21 20 20
59 72 84 82 85 84 79 84 89 94 93 93 100 98 95 95 89 89 89 77 72 69 64 57 35 19 16 12 13 16 11 16 29 27 26 28 29 30 23 22 26 25 22 17 15 20 25 27 23 13 7 8 9 9 11 14 19 24 26 28 30 32 36 39 40 39 36 33 32 40 49 50 50 49 45 42 41 39 33 31 31 25 20 18 19 19 19 20 20 20 20 19 18 17 17 16 17
55 71 81 79 87 85 79 85 89 94 93 90 98 95 94 98 84 84 92 72 62 66 63 60 40 21 19 15 11 14 14 14 21 26 28 27 28 27 20 21 26 24 21 16 17 23 30 29 21 14 9 8 10 12 14 19 23 24 24 27 31 33 36 41 42 39 36 33 34 38 45 47 48 49 45 40 37 35 29 24 21 17 15 15 15 16 16 16 16 16 16 15 15 15 16 16 16
53 61 71 82 93 89 80 86 89 93 93 87 91 91 94 99 82 78 83 66 63 69 68 67 51 33 26 19 12 11 13 13 14 19 25 27 29 30 23 21 24 24 20 16 19 27 34 32 23 17 12 11 15 17 19 21 22 22 26 33 37 37 38 43 42 39 38 36 35 37 41 44 46 48 46 40 35 32 28 24 20 18 17 16 17 17 17 17 17 17 17 18 18 18 18 18 17
54 54 68 87 94 89 77 82 94 95 95 91 88 88 91 91 80 72 67 62 65 66 67 68 61 45 25 16 14 12 12 13 14 15 18 22 26 29 25 22 23 24 20 17 20 28 35 32 25 22 19 16 18 21 24 23 22 26 34 41 40 37 37 39 37 36 39 39 38 39 42 45 47 47 45 41 37 32 27 24 21 20 19 19 19 20 20 20 20 20 20 20 20 20 20 19 19
50 51 69 90 89 84 69 65 86 96 96 95 89 84 83 83 80 70 61 63 66 66 66 63 68 59 26 13 13 11 14 12 14 15 15 17 19 25 25 22 24 24 20 18 20 26 32 34 29 27 26 23 21 22 24 23 25 30 37 42 39 36 36 32 30 35 41 41 39 41 45 46 46 45 43 41 37 33 29 25 23 22 23 23 23 22 21 20 20 20 20 21 21 22 22 22 23
53 52 69 90 87 81 64 49 71 94 96 95 91 85 80 84 84 71 67 71 71 74 72 60 73 73 33 14 13 10 15 13 12 15 15 16 14 19 22 21 23 24 22 19 19 23 27 34 35 30 30 28 24 27 27 25 28 31 34 38 39 40 41 33 29 35 38 37 35 40 45 46 43 38 37 37 34 31 28 26 25 24 25 25 25 24 24 24 24 25 26 26 27 28 28 28 28
62 61 67 86 88 83 66 49 69 93 97 95 91 86 82 83 81 73 75 79 79 78 71 64 78 78 39 17 15 10 14 14 11 14 16 16 15 16 18 20 23 23 24 20 18 21 23 33 38 31 32 29 24 29 27 27 32 33 30 29 37 45 42 36 31 32 32 31 32 39 44 46 41 34 32 31 29 26 25 26 26 26 26 26 27 28 31 32 32 32 35 35 35 35 34 32 33
65 64 67 85 91 85 71 55 71 94 99 96 90 87 87 86 82 82 81 79 78 70 68 76 78 67 36 18 18 12 11 13 13 14 15 16 15 15 17 19 23 24 24 22 19 21 20 27 36 32 30 28 23 24 25 29 30 32 33 27 31 35 32 34 34 31 32 32 33 38 44 46 43 35 28 26 25 25 26 27 27 27 27 27 30 33 34 35 35 37 39 38 35 36 34 33 36
61 62 66 85 88 80 74 62 69 92 100 99 97 93 94 95 90 88 84 79 76 67 71 86 79 55 30 19 19 15 9 12 15 13 13 17 17 15 16 18 21 24 23 21 21 22 21 22 31 32 27 27 25 25 29 29 26 34 44 35 24 22 24 29 26 23 29 33 30 31 40 46 44 36 26 22 23 25 28 28 26 26 25 25 27 30 33 34 35 37 37 36 35 36 35 34 35
57 59 63 76 80 73 72 62 61 83 95 97 101 99 96 99 96 88 85 83 81 78 80 87 77 46 25 23 20 16 11 10 15 15 13 14 16 15 14 16 18 22 22 20 19 20 20 17 23 27 25 27 28 29 28 27 34 41 39 28 20 19 21 19 14 13 21 25 21 21 33 41 40 31 22 20 22 26 29 27 23 23 24 23 23 26 29 33 36 36 36 37 37 36 33 32 31
45 48 59 73 83 81 72 60 56 73 90 92 92 92 92 98 99 91 88 86 80 87 92 88 79 47 28 31 29 24 13 9 18 19 19 16 15 17 15 15 16 18 21 19 17 17 15 13 15 20 22 25 27 26 22 31 46 40 24 16 15 15 14 14 14 12 12 15 15 15 25 34 33 25 18 19 24 29 29 25 23 23 22 20 21 23 25 29 32 33 34 34 32 29 26 25 23
37 37 52 70 87 86 69 63 58 60 79 88 84 80 83 92 99 95 91 90 83 91 97 91 89 63 36 35 41 40 20 13 26 25 26 22 13 17 16 15 16 16 19 18 16 16 14 12 10 14 18 20 23 21 22 43 48 28 17 13 12 14 14 14 17 17 11 10 17 21 23 25 26 26 22 20 25 29 25 24 26 23 19 16 17 19 19 21 23 24 25 24 21 18 17 15 13
29 30 38 52 76 82 68 69 67 56 61 73 78 76 78 85 95 98 95 94 89 92 96 92 95 76 44 37 45 53 38 23 27 29 32 26 14 18 18 15 16 15 17 17 15 14 15 13 9 10 15 16 19 18 22 40 36 19 17 15 15 18 15 13 15 19 14 8 17 27 29 23 22 25 24 21 23 25 22 23 26 21 15 12 14 14 11 12 13 14 14 13 12 11 9 8 7
18 24 34 46 66 79 79 76 70 64 55 54 65 70 74 78 86 100 97 92 88 87 92 91 91 74 48 44 47 53 54 38 26 27 31 26 20 21 19 16 16 15 15 15 14 14 14 14 10 8 12 14 15 16 18 25 24 21 21 19 22 20 12 11 13 15 12 9 14 21 26 26 25 25 22 21 21 21 19 20 23 18 12 9 9 9 8 8 8 7 8 7 7 6 6 5 5
14 18 29 51 64 68 80 78 67 73 62 45 52 60 70 74 81 99 99 91 85 83 90 86 83 71 48 49 54 48 51 48 34 29 29 23 21 20 17 17 16 14 15 14 14 13 12 13 11 8 10 13 13 14 16 16 17 20 20 20 24 19 12 11 11 13 12 11 13 16 22 27 29 25 20 20 19 17 15 16 18 12 7 7 6 6 6 7 7 6 6 5 5 5 5 5 5
16 17 19 41 58 59 72 77 68 77 71 48 44 51 66 78 85 98 100 92 85 87 95 84 80 77 52 45 55 48 46 49 36 29 32 24 18 22 19 16 16 15 14 14 14 13 12 11 10 8 9 12 13 12 14 15 15 15 17 21 23 18 13 11 11 14 17 19 17 16 19 26 33 30 21 19 18 16 15 16 16 11 7 6 6 6 6 5 5 5 5 5 5 5 4 5 5
15 22 21 23 38 48 59 68 61 63 63 50 45 45 56 77 91 99 98 94 87 91 96 81 76 79 61 47 50 49 51 54 35 23 34 29 20 25 22 15 16 16 14 13 13 13 12 11 10 8 8 11 13 12 13 16 17 14 16 22 21 17 13 11 12 12 17 25 24 16 14 22 34 36 27 20 18 15 14 15 14 10 7 6 6 5 5 6 6 5 5 5 5 5 4 4 4
13 22 27 18 29 45 47 52 50 47 51 47 44 43 49 66 85 97 97 95 91 90 90 77 74 78 65 54 53 50 55 62 42 21 31 34 26 24 19 15 15 15 16 13 12 13 12 11 10 8 8 10 12 12 12 16 19 16 16 22 22 20 17 13 14 14 15 22 27 21 14 14 23 31 28 21 21 19 14 14 12 10 9 8 8 7 6 6 5 5 5 5 4 4 4 4 4
9 18 25 19 39 55 44 46 50 47 48 46 41 40 50 61 75 94 98 97 95 91 88 76 73 75 64 59 60 51 52 65 52 27 26 30 26 21 15 13 13 14 16 15 13 13 13 12 10 9 7 9 12 12 12 15 18 17 21 27 24 21 20 17 17 18 18 20 26 27 19 12 13 21 25 20 21 24 22 19 14 12 12 12 12 12 11 9 7 6 4 4 4 4 3 3 4
6 13 18 17 39 53 47 59 74 73 58 43 37 36 52 68 77 92 97 99 99 91 88 80 75 75 65 61 62 50 47 62 57 35 26 24 20 17 15 13 11 12 15 17 16 13 14 13 10 9 7 8 11 12 12 13 17 18 25 34 30 25 24 23 23 23 24 22 22 25 24 19 14 15 20 18 17 20 22 20 16 16 17 16 14 14 14 13 14 14 9 5 3 3 3 3 4
5 5 8 14 29 33 39 62 82 92 78 53 45 44 53 68 79 90 95 98 100 95 91 84 80 79 68 63 63 53 48 56 55 41 28 21 16 14 16 14 10 10 12 18 18 16 15 13 12 10 7 8 10 12 12 12 17 17 24 36 39 39 35 30 32 30 29 29 24 23 26 25 20 15 16 17 17 20 20 17 14 16 19 18 16 16 15 14 16 18 15 8 4 4 4 3 4
6 11 7 6 20 25 35 61 77 84 86 77 70 66 60 59 70 87 93 94 98 100 98 89 84 83 75 71 66 57 55 56 50 43 32 22 17 15 15 14 12 10 10 16 19 17 16 14 13 10 8 8 9 13 12 11 16 17 22 33 40 48 46 39 40 36 31 34 33 28 27 26 23 18 15 14 16 24 26 22 18 18 21 20 16 16 16 14 14 13 11 8 5 5 4 3 4
15 42 33 7 20 41 47 65 78 76 83 90 85 77 70 63 63 73 87 95 97 100 100 96 93 90 81 76 74 64 58 54 44 43 42 30 21 19 16 12 13 11 8 14 17 17 17 14 14 11 8 8 9 13 13 11 14 16 20 30 40 49 51 47 43 38 33 32 36 38 35 30 26 22 20 18 13 16 20 21 20 18 17 15 13 13 13 12 11 9 7 6 5 4 4 4 5
10 42 45 24 42 72 74 75 80 76 76 85 85 80 77 74 63 60 73 88 95 99 102 101 98 97 86 79 85 75 59 49 40 42 50 42 31 27 21 13 12 11 7 11 14 16 16 14 14 13 10 8 10 12 13 12 13 17 19 25 39 48 49 48 40 35 33 29 32 41 40 34 31 24 22 24 20 18 17 14 14 16 16 15 10 9 9 7 8 9 7 6 5 4 4 4 6
4 23 35 42 67 86 84 80 79 76 74 82 91 84 78 75 62 55 61 72 84 90 95 99 99 101 93 86 93 85 67 54 42 43 53 51 43 36 25 14 10 10 8 9 11 15 17 15 14 14 12 10 10 12 13 13 12 16 19 20 30 37 38 36 33 35 34 31 34 39 40 37 35 28 22 23 24 22 18 12 10 12 15 13 7 6 7 6 6 8 8 6 5 4 4 5 7
7 21 32 50 75 82 83 83 81 83 80 85 94 86 73 66 60 62 63 63 70 72 78 91 98 101 96 93 96 89 78 67 49 46 54 55 51 44 33 20 10 9 10 9 9 12 16 16 14 13 13 11 10 11 13 14 12 13 18 19 22 29 32 28 30 39 36 31 37 42 41 37 34 32 25 21 21 20 16 11 10 10 9 7 6 5 6 6 7 8 7 5 5 5 6 6 7
7 16 28 54 74 75 81 84 79 81 82 85 91 84 72 64 63 72 74 65 62 66 76 88 98 102 96 94 97 90 88 83 64 50 52 57 53 45 41 31 15 9 11 10 8 9 12 16 16 13 13 13 11 11 11 13 13 12 16 19 21 25 30 28 32 43 37 24 27 35 38 38 38 35 26 21 20 19 16 12 9 9 7 5 6 6 6 7 8 9 9 5 5 6 6 6 8
10 16 27 54 74 75 78 81 77 77 82 88 89 82 78 76 72 77 82 70 59 67 79 85 94 101 97 97 97 89 90 93 78 56 47 52 50 43 46 41 23 12 11 10 9 8 8 12 16 15 14 14 12 10 11 13 12 13 15 18 22 22 25 28 31 38 39 28 23 27 31 33 36 32 23 21 21 19 17 17 12 8 7 5 5 6 6 7 8 10 12 7 5 5 5 7 8
14 26 33 45 66 75 76 80 79 75 76 80 81 79 83 90 87 81 79 69 59 65 72 77 87 93 97 101 97 88 90 94 85 64 45 43 47 47 49 44 28 17 13 11 10 9 7 8 12 16 16 15 14 11 10 12 12 12 14 18 22 22 22 26 27 29 33 34 30 27 26 27 31 28 22 22 23 19 18 21 17 8 7 7 6 6 6 5 7 9 11 8 5 6 5 6 7
15 39 52 58 70 81 83 81 79 78 75 71 71 74 76 85 86 77 71 66 60 59 61 67 76 80 87 96 96 90 91 93 89 79 60 46 48 52 53 50 36 21 16 14 11 9 8 6 7 12 15 16 15 13 10 11 12 12 13 18 22 24 23 22 29 33 28 32 35 26 20 25 32 28 19 19 21 18 16 17 14 8 8 8 5 6 6 6 7 8 9 7 6 6 6 6 7
33 64 73 74 77 85 91 86 81 85 82 73 75 76 69 69 71 69 71 74 72 66 61 64 69 70 73 82 90 92 94 95 90 88 81 62 53 55 57 58 49 31 20 17 14 10 9 8 6 8 12 16 16 14 12 10 11 12 12 17 20 25 26 21 29 34 25 33 41 26 16 22 29 27 20 20 21 16 15 13 11 10 7 6 5 5 6 6 7 8 7 6 6 6 6 6 7
49 72 67 73 77 79 89 88 84 86 80 76 82 80 69 62 57 56 68 82 90 86 73 69 70 67 64 66 73 80 90 95 88 87 88 77 62 56 55 58 57 44 27 20 18 11 9 9 7 6 8 13 15 15 13 10 10 12 12 16 19 24 28 24 27 28 24 39 43 21 14 20 24 30 27 20 17 16 14 11 11 12 8 6 6 4 5 6 6 7 6 6 6 6 6 6 6
38 48 45 66 79 77 84 85 83 85 78 74 80 81 78 71 56 49 58 73 90 95 85 79 82 82 78 75 73 77 89 95 90 85 85 84 74 62 57 60 62 53 34 26 24 16 11 10 8 6 6 9 14 15 14 12 10 11 11 14 17 22 27 26 26 26 28 39 36 16 16 19 15 23 27 17 12 15 15 10 10 10 7 7 7 4 4 5 5 6 6 5 6 5 6 6 6
28 39 39 58 77 79 83 82 82 87 80 69 73 82 86 80 64 59 58 55 66 82 84 82 89 94 92 88 85 86 92 94 92 87 83 86 84 73 66 65 69 67 50 35 31 23 14 11 9 7 5 7 12 14 15 13 11 11 11 13 15 19 26 26 24 28 30 34 34 26 27 30 19 16 22 17 10 11 12 10 9 9 9 8 8 5 4 5 5 5 6 5 5 6 6 6 7
28 45 45 57 75 78 79 81 81 84 75 67 75 82 80 73 65 65 59 46 51 67 72 75 83 88 87 85 81 78 77 76 80 84 86 87 83 77 70 64 70 80 71 51 39 31 20 14 12 9 6 5 9 13 14 13 12 11 11 12 14 16 23 27 24 27 30 29 36 37 31 33 32 26 24 17 10 8 8 8 10 13 14 10 7 7 6 6 5 4 6 5 5 6 6 6 7
22 43 47 56 70 71 73 81 83 78 67 64 73 76 73 71 67 65 61 53 51 54 58 69 80 83 83 80 73 66 62 60 63 70 81 88 82 73 69 66 69 80 82 68 49 33 22 16 13 10 7 5 6 11 14 13 12 12 11 11 13 15 19 26 25 24 27 25 31 35 25 21 29 32 27 18 13 10 6 7 9 11 13 10 10 13 10 7 6 5 5 5 5 6 6 6 6
17 34 48 54 62 63 63 76 84 77 62 61 71 70 67 69 64 60 63 59 52 49 55 69 81 83 83 79 72 66 62 60 59 59 66 79 83 77 71 70 71 75 80 78 63 44 29 20 13 9 8 6 5 9 12 13 12 11 13 12 12 15 17 23 26 22 24 25 27 30 22 13 16 21 17 15 18 14 7 7 7 6 7 6 10 14 9 6 7 6 5 5 6 6 6 6 6
31 38 53 60 65 63 56 65 76 69 58 62 74 69 60 62 58 53 56 52 46 52 63 70 74 75 76 76 73 68 63 60 61 59 57 70 87 87 77 70 69 72 78 83 78 66 54 41 25 12 8 6 5 7 10 11 11 11 12 12 12 15 15 20 26 23 21 24 26 27 23 15 12 12 10 13 18 13 6 5 5 5 5 4 6 8 6 5 6 6 5 5 6 5 6 7 6
50 44 51 63 72 70 67 71 72 67 63 64 69 63 50 49 52 58 61 52 44 52 61 62 62 62 64 67 67 62 57 52 54 61 61 68 84 89 79 71 70 73 78 82 78 73 75 76 62 41 24 11 3 6 9 10 10 10 11 12 12 14 15 17 22 24 22 24 26 27 23 16 14 13 11 12 12 9 5 5 4 4 4 4 4 5 6 7 6 6 6 5 6 6 6 6 7
69 54 48 61 71 69 76 86 81 75 74 66 62 59 52 49 51 59 65 54 42 44 50 51 52 54 56 59 60 53 47 45 47 58 63 63 74 84 82 76 74 75 77 79 78 75 79 89 88 72 52 31 12 5 6 9 9 8 10 12 11 12 14 16 19 21 23 24 26 27 22 17 17 15 11 11 10 8 6 5 4 4 4 4 5 4 7 9 9 9 9 7 7 6 5 6 7
86 85 62 59 70 68 72 87 86 79 76 70 64 60 60 62 57 55 59 55 44 38 42 48 51 53 52 56 60 51 47 50 48 52 62 66 73 82 85 81 79 78 74 73 78 80 78 81 84 79 68 52 32 16 8 8 10 9 8 11 11 11 12 14 17 19 20 24 26 27 22 16 17 17 12 10 9 7 7 6 5 4 4 4 5 4 5 9 11 10 10 8 6 6 6 6 6
77 98 83 68 74 70 66 81 87 78 73 72 69 62 56 54 49 45 44 44 42 39 44 51 56 57 53 53 57 52 51 55 49 47 66 82 86 87 88 87 84 78 72 71 75 82 81 77 80 83 75 63 51 39 23 10 9 10 8 10 11 11 12 13 15 16 17 20 25 27 23 16 15 15 11 10 9 7 7 6 5 4 4 4 4 4 4 8 11 9 9 8 5 6 7 5 6
73 90 93 84 76 65 62 76 83 77 77 76 71 69 64 53 52 57 47 33 31 37 45 50 53 56 52 47 48 48 52 57 48 45 63 84 92 93 92 92 89 82 78 77 80 85 85 78 77 82 83 76 66 58 45 26 16 13 8 9 11 10 11 12 14 16 15 16 21 26 25 18 14 14 12 10 10 8 7 6 5 4 4 3 4 4 3 5 6 6 9 10 6 5 6 6 6
93 95 91 82 75 69 68 77 79 77 83 85 76 78 79 67 67 76 68 48 35 35 45 49 46 51 55 51 43 40 50 61 53 41 52 75 88 91 94 95 94 88 82 82 85 88 87 81 78 83 88 84 73 68 63 47 32 23 12 8 10 10 11 11 12 15 14 14 16 22 26 21 15 14 13 11 10 10 8 6 5 4 4 4 4 4 4 4 4 4 6 8 8 6 5 6 7
Wind_Speed
5 4 5 6 7 7 8 10 11 10 10 11 14 17 16 15 14 12 11 10 10 8 6 8 7 7 7 6 6 7 6 6 9 10 11 9 10 15 14 15 16 18 18 17 17 17 17 18 17 17 17 17 17 15 13 12 13 14 13 13 13 13 13 13 11 9 7 7 5 4 3 1 1 1 2 3 3 3 3 4 4 3 2 3 3 3 3 3 3 3 3 3 3 3 4 5 5
4 3 4 5 7 6 7 8 9 9 8 10 13 18 16 15 14 12 11 9 9 8 6 7 7 7 7 6 6 7 5 6 10 11 12 8 8 13 14 15 16 17 18 17 17 17 17 17 17 17 18 18 17 14 12 12 14 14 14 14 14 13 13 12 10 8 6 6 5 4 3 2 1 2 3 3 3 3 4 5 5 4 3 3 3 3 4 4 4 4 3 3 3 3 4 5 5
2 3 4 4 6 5 6 7 7 7 6 9 12 16 16 14 14 12 12 10 9 7 6 7 7 7 7 7 5 6 6 5 9 13 10 9 10 11 14 15 16 17 16 17 16 16 17 17 17 17 18 17 15 13 12 13 14 14 14 14 14 13 13 12 9 7 6 6 5 4 4 3 2 2 3 3 3 3 4 5 5 5 4 4 3 3 4 4 4 5 4 3 3 4 3 4 5
1 2 3 3 3 5 5 6 6 5 2 7 10 13 14 13 12 11 12 11 8 6 5 6 7 6 6 8 6 7 6 3 7 14 9 6 11 12 13 14 14 16 15 16 15 16 16 15 16 16 17 16 14 12 12 13 15 14 13 14 14 13 13 11 9 8 6 6 6 5 4 4 3 2 2 2 3 4 5 5 6 6 5 5 4 3 4 5 4 4 4 3 3 3 3 3 4
1 2 2 3 3 4 5 4 4 5 3 4 10 14 13 12 11 10 11 11 8 5 5 6 8 6 6 8 7 8 8 4 5 13 10 4 10 13 12 13 13 14 15 15 15 15 15 14 15 15 15 15 13 12 12 14 14 13 13 14 14 13 13 12 10 9 7 7 7 6 5 4 4 3 3 2 3 4 5 6 6 5 4 5 5 4 3 5 5 4 4 3 2 3 3 4 6
2 2 2 3 4 4 6 6 3 3 3 4 11 15 14 12 12 11 11 10 8 7 6 5 7 6 6 6 6 9 10 8 6 11 12 6 9 13 12 13 13 13 14 14 15 15 14 13 13 14 15 14 13 12 13 13 13 12 13 14 14 14 14 13 11 10 9 9 9 9 8 7 6 5 5 4 4 5 6 6 5 5 4 4 5 5 4 4 4 4 4 3 3 3 4 5 7
2 2 1 2 4 4 5 6 4 2 1 6 10 14 13 12 12 12 10 9 9 7 5 5 7 6 5 6 6 8 10 11 9 10 12 9 9 12 12 12 12 13 14 14 14 14 14 13 13 14 15 15 14 13 13 13 13 13 14 15 15 15 14 13 12 11 11 11 11 11 11 10 10 9 8 7 7 7 7 6 7 8 7 6 5 4 3 3 3 3 4 4 5 5 6 8 9
2 1 0 2 5 5 4 6 4 1 2 7 12 15 15 14 14 13 11 9 8 7 6 6 6 6 5 4 7 8 9 12 11 10 12 11 10 11 12 12 12 12 13 14 14 14 14 13 14 15 15 15 14 13 13 13 13 14 15 15 15 15 14 13 12 12 13 13 12 12 13 12 12 11 10 9 9 9 9 9 10 10 10 9 6 6 5 5 5 5 7 7 9 9 10 11 12
3 2 1 2 5 6 4 5 5 2 1 6 12 16 18 17 14 13 10 8 8 7 6 6 5 6 6 3 7 8 9 11 12 11 11 12 11 11 12 12 13 13 12 13 13 14 14 14 14 16 16 16 15 14 14 14 14 15 15 15 16 15 15 14 13 13 15 14 14 14 13 13 12 11 10 9 10 10 10 11 12 11 11 11 8 8 8 9 10 10 11 12 14 14 14 15 16
4 2 1 2 3 5 4 4 4 1 0 4 11 17 20 15 13 13 9 7 8 7 5 6 4 4 7 4 7 8 9 11 11 11 11 11 12 12 12 11 12 13 13 13 13 14 14 14 15 16 17 16 15 14 14 14 14 15 15 16 16 16 15 14 14 14 15 15 14 14 13 13 12 11 10 9 9 10 12 12 13 13 13 13 11 10 11 12 13 14 16 17 19 19 18 19 19
3 1 1 3 3 4 4 4 4 2 1 2 9 20 21 13 14 14 9 9 9 6 4 5 4 4 6 4 5 7 9 11 12 11 10 10 11 12 13 12 12 13 14 14 13 14 14 15 16 17 17 16 16 15 15 15 14 14 15 17 17 16 15 15 15 15 15 15 14 14 14 13 12 12 11 11 11 12 14 15 15 16 16 16 15 15 15 16 17 18 20 21 23 23 22 21 21
2 1 1 6 5 4 5 5 5 3 2 4 13 23 21 13 15 11 7 11 9 5 5 4 4 5 6 4 3 6 9 11 12 12 11 10 11 11 12 12 12 13 13 14 14 14 14 16 16 17 17 17 16 16 16 15 14 14 15 16 17 16 15 15 15 14 15 15 15 15 15 14 14 14 13 12 12 13 15 16 17 18 19 20 19 18 18 19 21 22 22 22 24 24 23 22 22
2 1 2 7 7 6 6 6 5 2 1 7 16 21 19 17 16 11 8 11 8 5 5 4 4 5 5 4 3 4 8 10 11 12 11 11 11 11 11 11 12 13 13 14 15 14 14 16 16 16 16 16 16 16 16 16 14 14 14 15 16 16 16 15 15 14 14 14 15 15 16 16 15 15 14 13 13 14 16 18 19 20 21 22 22 22 21 22 24 25 25 24 24 24 23 22 22
2 0 3 7 6 7 7 7 5 1 2 9 17 18 17 17 14 11 10 9 6 5 5 3 4 5 5 5 4 3 6 10 11 11 11 12 12 11 11 11 11 12 13 14 15 14 14 15 16 16 16 16 16 16 16 16 15 14 14 15 15 16 16 16 15 14 13 14 15 16 16 16 16 15 15 14 13 14 16 18 20 20 22 23 23 24 23 24 25 26 25 24 24 24 23 22 22
3 1 3 6 4 5 6 7 5 1 5 10 17 17 16 16 14 12 9 8 6 4 3 3 4 5 5 4 5 6 6 9 11 11 11 11 11 11 10 11 11 11 13 14 15 14 14 15 15 16 16 15 15 16 16 16 15 14 14 14 14 15 16 16 15 15 14 14 14 15 16 16 16 15 15 15 14 15 17 18 20 21 22 22 23 24 24 24 25 25 24 24 24 24 23 22 22
4 1 3 5 4 4 5 8 7 4 9 12 15 16 16 15 14 12 9 7 5 4 3 3 4 4 5 3 4 7 7 8 10 10 10 10 10 11 10 10 10 11 12 14 15 15 14 15 15 15 15 15 15 15 16 16 15 14 14 14 14 14 15 15 15 15 15 14 14 15 15 15 15 15 15 15 15 15 17 18 19 20 21 21 22 23 23 24 24 23 23 23 23 22 22 21 21
4 3 2 4 5 5 6 9 9 7 10 12 13 14 15 14 12 11 9 7 5 4 3 3 3 3 5 4 3 7 8 8 9 9 9 9 10 10 9 9 9 10 11 13 14 15 14 14 14 15 15 14 15 15 15 15 15 15 15 15 15 14 15 14 14 15 15 15 15 15 15 15 14 15 15 15 15 15 16 17 18 18 19 19 20 21 21 21 22 22 21 21 21 20 20 20 20
5 4 1 5 6 6 5 7 9 6 11 13 12 14 14 12 10 9 8 7 6 6 5 3 2 3 4 5 4 5 7 9 9 9 9 10 10 10 9 8 8 9 10 12 13 14 14 14 14 14 14 14 15 15 15 15 15 14 15 15 15 15 15 14 15 16 16 15 15 15 15 15 14 15 16 16 16 15 16 16 16 16 16 17 18 18 18 18 19 19 19 19 19 19 19 19 20
6 6 2 4 5 4 3 4 7 4 9 13 12 13 12 10 9 9 9 7 6 6 5 3 2 2 3 5 5 4 5 7 9 10 10 10 10 10 9 9 8 8 9 11 13 13 13 14 14 13 13 14 14 15 15 14 14 14 15 15 15 15 16 15 15 16 16 15 14 14 15 15 15 15 16 16 16 16 16 15 14 14 14 14 15 16 16 16 16 17 17 17 18 18 18 19 20
7 7 2 2 2 2 3 2 7 4 8 11 11 12 11 10 10 9 8 7 6 6 5 3 2 2 3 5 5 5 4 5 7 9 11 10 9 10 10 9 8 8 8 10 12 13 13 13 13 13 13 13 14 14 14 13 14 14 15 14 14 14 16 16 15 15 15 14 13 13 14 14 15 15 15 16 17 17 16 15 14 13 13 13 13 14 14 15 15 16 17 17 19 19 19 20 20
8 7 3 0 2 1 1 1 6 5 8 11 10 11 10 9 9 8 7 7 7 7 6 4 4 4 3 5 5 5 4 5 6 8 11 10 9 9 8 8 8 8 8 9 12 12 12 12 13 12 12 12 13 13 13 13 14 14 14 14 14 14 15 16 16 15 14 14 13 13 13 13 14 15 15 15 16 17 16 15 14 14 14 13 14 14 14 15 15 16 17 18 20 20 20 20 21
8 8 6 2 1 3 1 1 6 6 8 10 7 9 7 7 8 9 10 9 9 8 7 6 6 6 5 5 6 5 4 5 6 8 10 10 10 9 8 7 7 7 7 8 10 12 12 12 12 12 12 12 12 12 11 13 14 14 14 14 14 15 15 17 16 15 14 14 13 13 13 13 13 14 14 14 16 16 16 16 16 16 16 16 16 16 15 16 17 17 17 19 21 21 21 21 21
10 9 8 4 0 3 3 2 4 7 7 8 6 6 5 7 9 11 11 9 10 8 6 8 8 6 5 5 6 6 5 6 6 8 10 11 11 10 9 8 7 7 7 7 8 10 11 11 12 12 12 11 11 10 10 13 14 14 14 14 13 14 15 16 16 15 15 14 14 14 14 13 13 13 13 14 15 16 16 17 17 17 18 18 17 17 17 17 18 18 18 20 22 21 21 22 23
13 11 10 7 3 4 5 4 4 6 6 7 6 5 4 7 10 12 11 9 10 8 7 9 9 6 6 5 5 6 6 6 6 6 10 11 11 10 10 8 7 6 6 7 7 9 10 10 11 11 11 11 10 9 10 12 13 14 13 13 13 13 14 15 15 17 16 14 14 14 14 14 14 13 13 14 16 16 17 18 18 19 19 19 18 19 19 19 19 20 21 23 23 23 23 24 25
14 14 12 9 5 6 6 4 4 4 5 6 5 4 4 6 9 12 11 11 11 10 9 8 8 6 5 5 4 5 6 7 6 5 7 10 10 10 9 9 8 7 6 6 7 8 9 9 10 10 11 10 9 9 10 12 13 13 13 13 14 13 13 14 15 17 17 16 15 15 15 15 15 14 14 15 16 17 17 18 19 19 20 20 20 20 21 22 22 23 25 25 24 25 25 26 26
16 17 16 12 7 8 9 7 5 6 5 5 4 3 3 4 8 12 13 13 12 11 11 8 8 7 4 5 4 5 6 7 7 6 7 8 9 10 9 9 8 7 7 6 6 8 9 9 9 10 10 9 8 8 10 10 11 12 12 13 14 14 14 14 15 16 16 16 16 16 17 17 16 15 14 15 16 17 17 18 19 19 20 20 21 22 23 25 25 25 26 26 26 26 26 26 25
22 19 17 16 12 9 9 8 6 6 6 5 4 3 2 2 6 12 14 15 14 11 11 10 10 9 5 5 5 4 6 6 7 6 6 6 8 9 9 8 8 8 7 7 6 6 8 9 9 9 9 8 7 8 9 9 10 12 12 12 13 14 15 15 15 15 15 16 16 17 17 18 17 16 16 16 17 17 17 19 19 19 20 20 21 23 24 25 25 25 26 26 25 25 25 24 23
21 19 17 17 15 12 10 9 7 6 7 6 5 3 3 3 6 13 18 17 16 13 12 13 12 10 7 5 5 5 6 5 5 5 5 6 6 8 9 9 8 8 8 7 7 6 8 9 9 9 9 8 7 7 9 9 10 10 11 11 12 13 14 15 15 15 15 16 16 16 17 17 18 18 18 18 17 16 17 18 19 19 20 21 22 22 23 24 24 25 25 25 24 23 23 22 21
17 18 17 17 16 14 12 10 9 7 8 8 6 4 4 6 7 12 20 20 17 15 14 13 12 11 8 7 7 6 7 7 5 5 5 6 6 7 9 9 8 8 8 7 7 6 7 9 9 9 9 8 6 7 8 9 9 10 10 11 11 12 13 14 15 15 15 16 16 16 16 17 17 18 18 18 17 15 16 17 18 20 20 21 21 21 22 23 23 23 23 23 22 21 21 20 19
14 13 14 17 18 16 14 11 10 10 11 11 7 5 5 6 7 11 20 19 17 15 14 12 12 11 9 8 8 7 8 8 6 6 6 7 6 6 8 9 9 8 8 8 7 6 7 8 9 9 8 8 7 7 7 8 9 9 10 10 10 11 11 13 14 14 15 15 16 16 16 16 16 17 18 17 16 15 15 16 18 19 20 20 20 20 21 21 21 21 21 21 20 19 19 18 17
15 12 12 15 15 16 16 12 11 12 13 12 9 8 7 6 5 11 18 16 16 16 14 14 13 12 9 9 9 9 9 9 7 7 7 7 7 7 8 8 9 8 8 8 8 7 6 7 7 8 7 7 8 8 8 8 8 8 9 10 10 10 10 12 13 13 13 14 15 16 16 15 15 16 16 17 16 15 15 15 16 18 19 19 19 19 20 20 19 19 19 19 18 18 17 17 15
15 13 12 12 10 15 18 14 12 14 14 12 10 10 9 7 5 11 17 16 16 17 15 14 14 13 11 10 10 10 10 9 8 7 7 7 7 7 8 8 9 8 7 7 7 7 6 6 6 7 6 6 6 8 8 9 9 9 10 11 11 11 11 11 12 12 12 13 14 15 15 15 15 15 15 16 16 15 15 15 15 17 17 17 17 18 18 18 17 17 16 16 16 16 16 16 14
18 15 13 12 10 14 18 14 11 12 13 12 11 11 10 8 5 9 16 17 16 17 16 15 14 14 13 12 12 10 10 9 8 7 7 8 7 8 8 8 9 9 8 7 6 7 6 6 6 6 6 5 5 6 7 8 8 9 10 11 11 11 11 11 11 11 12 12 12 13 14 14 14 14 15 15 15 14 15 15 14 15 16 16 16 16 16 16 16 15 15 14 14 14 15 15 13
21 17 15 13 12 14 14 9 6 9 12 12 11 11 11 8 4 6 14 16 16 17 17 16 15 15 14 13 12 11 10 10 9 8 8 8 8 8 8 8 9 9 9 8 7 7 7 6 6 6 6 5 4 4 6 7 8 9 10 10 11 11 11 11 11 11 12 12 11 11 12 13 13 14 14 14 14 13 13 14 13 14 14 14 14 15 14 14 14 13 13 13 12 13 13 13 13
20 18 17 15 14 14 12 7 6 8 11 10 10 11 11 10 6 4 8 12 15 16 16 17 16 15 14 13 13 12 11 11 10 10 9 9 9 9 9 8 8 9 9 9 9 8 7 7 7 7 6 5 4 4 4 6 7 8 9 10 11 11 10 10 11 11 12 12 11 10 10 11 12 12 12 13 13 12 12 12 12 12 12 12 13 13 13 12 12 12 12 11 11 12 11 12 13
19 14 16 16 13 14 11 8 8 10 11 9 9 10 11 12 9 5 5 8 13 15 15 16 17 16 15 13 13 12 12 11 11 11 9 9 10 9 9 9 9 9 10 11 11 10 9 8 7 7 7 6 5 4 4 5 7 7 8 8 10 10 10 9 10 10 11 11 11 10 9 10 10 11 11 11 11 11 10 10 10 10 10 10 11 11 11 11 11 10 10 10 11 11 10 11 13
22 17 14 15 12 11 12 10 11 14 12 9 9 10 10 11 11 9 6 6 10 13 14 15 16 16 16 15 14 13 13 13 12 11 10 9 9 9 9 10 10 10 11 12 12 11 10 9 8 8 8 7 6 4 3 4 6 6 7 7 8 9 9 8 8 9 10 10 10 9 9 9 9 9 9 9 9 9 9 9 8 8 8 8 9 10 10 9 10 10 10 10 11 11 10 11 13
27 24 18 16 14 9 11 14 16 17 13 11 11 11 11 11 12 12 9 6 6 10 12 13 14 16 17 16 15 15 14 13 12 12 11 10 9 9 9 10 10 10 10 11 12 12 11 10 9 8 8 8 7 6 4 4 6 6 6 6 7 8 8 8 8 8 9 9 9 8 8 9 8 7 7 8 8 8 8 8 7 6 7 7 7 9 9 8 9 10 9 10 10 10 10 12 12
27 26 21 21 18 11 14 17 18 19 17 15 15 13 13 12 11 12 12 11 8 8 11 12 16 19 19 19 18 17 16 13 11 11 11 10 10 9 10 10 11 10 9 10 11 11 11 11 10 9 8 8 8 7 5 4 5 7 7 6 5 6 7 8 9 8 8 8 9 8 7 8 8 6 6 6 7 8 8 7 7 6 6 7 7 9 9 9 10 10 10 10 10 10 11 12 12
27 28 27 25 17 13 17 16 15 16 17 17 16 15 13 11 10 11 13 14 12 10 11 13 18 22 21 21 21 19 16 13 11 11 11 10 10 9 10 10 11 10 10 10 10 11 12 11 11 10 9 9 9 8 6 5 5 6 7 6 5 5 6 8 9 8 8 8 8 7 7 7 7 6 5 5 5 7 7 7 7 6 7 8 8 9 9 10 11 11 10 11 11 11 11 12 12
30 32 32 29 16 15 15 14 14 15 17 16 14 12 11 12 12 11 11 12 13 12 11 11 15 22 24 21 21 20 18 15 12 12 11 10 10 9 9 10 11 11 11 10 11 11 12 12 11 10 9 9 9 9 7 6 5 5 6 7 7 6 6 7 9 8 7 7 7 6 6 7 7 5 5 4 5 6 6 6 6 6 7 8 9 10 10 11 11 11 10 11 11 11 11 11 11
32 31 31 33 25 21 20 19 19 20 21 16 12 10 9 11 12 11 11 11 13 13 11 10 10 17 23 22 21 20 19 18 14 12 12 11 11 11 10 10 10 11 11 11 11 11 11 11 11 10 10 9 9 9 8 7 6 6 6 7 8 8 7 8 9 9 8 7 7 6 5 6 6 5 5 5 5 5 5 5 6 7 7 8 9 10 11 11 11 11 10 10 10 10 11 10 10
31 26 26 32 31 27 24 21 18 19 19 14 10 10 9 11 11 12 13 12 13 14 12 12 11 12 16 18 21 21 20 19 15 13 12 11 12 11 10 10 10 10 11 11 11 11 10 11 12 12 11 11 10 10 9 8 7 7 8 8 8 9 8 8 8 9 9 9 8 7 6 5 5 5 5 6 6 6 5 5 6 7 8 8 9 10 10 11 11 11 10 10 9 9 9 9 8
28 26 26 31 30 23 17 15 14 14 16 13 9 11 13 14 14 13 14 13 12 14 14 14 13 12 12 13 17 20 21 20 17 13 12 12 12 12 11 10 10 10 11 12 12 12 11 11 12 13 12 12 12 11 10 9 7 7 9 9 9 9 9 8 7 8 9 10 9 8 8 7 6 5 6 6 7 7 6 6 6 6 7 8 9 9 10 10 10 10 10 9 8 8 8 8 7
29 32 33 31 29 25 21 20 17 16 20 17 12 14 17 18 20 16 12 11 10 12 14 14 12 12 13 13 14 16 19 21 19 15 14 13 13 13 12 11 10 9 10 11 12 13 12 12 12 13 13 14 13 12 11 9 8 7 9 10 10 10 9 8 8 7 8 9 9 9 8 8 7 5 5 6 7 7 6 6 7 6 6 7 8 8 8 9 9 9 9 8 8 7 7 7 7
34 37 37 34 33 33 32 29 25 21 24 21 14 16 17 18 20 15 7 7 7 9 11 11 10 10 12 14 14 15 17 20 19 16 16 15 14 14 13 11 10 9 10 10 12 13 13 13 12 13 14 15 15 13 12 11 9 8 8 10 10 10 10 9 9 8 7 8 8 8 8 9 8 6 5 6 7 7 7 7 7 7 7 7 7 7 8 8 9 8 8 8 8 8 7 6 6
36 37 37 37 38 39 37 31 27 21 21 23 20 17 19 19 18 13 8 8 9 10 10 9 9 10 12 13 14 15 16 19 20 17 17 16 15 15 13 11 10 10 10 8 10 13 13 14 13 13 14 16 16 15 14 12 11 9 8 9 10 10 10 11 11 10 9 8 7 7 8 8 7 6 5 6 6 6 7 8 8 7 7 7 7 7 7 8 8 7 7 8 8 8 8 7 6
37 37 34 35 39 38 33 28 27 23 21 22 21 18 21 20 18 17 17 15 14 14 12 10 11 11 12 13 14 15 16 18 20 18 18 18 17 16 13 11 11 10 10 8 9 12 13 14 14 14 15 16 17 16 15 14 12 10 8 9 9 10 10 11 11 11 10 9 8 7 8 8 7 6 5 6 7 6 7 8 8 8 8 7 8 7 7 7 7 7 7 8 8 9 8 7 7
40 38 32 33 35 35 32 27 27 27 23 22 20 16 21 23 23 24 22 19 18 18 15 13 13 12 12 14 15 16 17 17 18 18 18 19 18 17 15 14 13 12 11 10 10 11 12 14 14 14 15 17 18 18 17 16 14 12 10 9 9 9 9 10 11 11 11 10 9 9 10 9 8 8 6 6 7 7 7 8 8 8 8 8 8 8 7 7 7 7 7 7 8 8 8 8 7
41 38 33 35 34 35 36 31 29 26 23 25 21 17 24 28 28 28 24 21 19 18 16 15 14 11 11 14 15 16 17 17 17 17 18 19 18 18 17 16 15 13 13 13 11 11 11 13 15 15 15 16 18 19 18 17 15 13 11 10 10 10 9 10 10 11 11 10 9 9 10 10 10 8 7 7 7 7 7 7 8 8 8 8 8 7 7 7 7 7 7 7 7 7 7 7 7
37 37 34 35 34 36 38 36 33 26 23 27 23 21 28 31 30 29 27 25 23 19 18 17 16 12 11 14 14 15 16 18 18 16 16 17 18 18 18 18 17 16 16 15 12 10 9 9 12 14 15 16 18 19 19 18 17 15 13 11 10 10 10 9 10 10 10 9 9 8 9 10 10 8 7 6 6 7 6 6 7 7 7 8 8 7 7 7 7 6 6 7 7 6 6 6 6
31 36 36 34 33 32 31 32 32 22 20 25 25 27 30 29 30 29 28 30 27 22 21 19 17 15 14 14 15 16 16 18 18 16 17 18 19 20 21 21 20 18 18 17 13 11 10 9 10 12 13 15 16 18 19 18 17 16 14 13 11 11 10 10 10 10 10 9 9 8 8 8 9 8 7 6 6 6 6 6 5 5 6 6 7 6 6 6 6 6 6 6 6 6 6 5 5
28 35 37 33 30 26 21 20 21 15 16 22 26 32 35 30 28 27 26 28 28 26 25 22 19 20 18 16 17 18 18 19 18 16 18 19 21 22 24 24 22 20 19 18 15 12 12 11 10 11 12 13 15 17 19 18 18 17 15 14 12 12 12 12 12 11 10 10 10 9 8 8 8 8 7 6 6 5 5 5 5 5 5 5 5 5 5 6 6 6 6 6 6 6 5 5 4
23 28 32 28 26 26 24 21 18 14 16 21 23 28 34 32 30 29 27 25 26 27 27 24 23 23 21 19 20 20 20 20 17 16 18 21 24 25 27 25 22 21 20 18 16 14 13 13 12 13 14 13 14 16 18 19 18 17 17 14 13 13 13 13 12 12 12 11 11 11 10 9 9 9 9 8 7 6 5 5 5 5 5 5 5 5 5 6 6 6 6 6 6 6 6 6 5
25 25 30 28 27 29 30 28 25 21 21 23 22 25 30 31 30 31 29 27 27 27 25 24 24 23 22 21 20 20 19 17 16 18 20 22 23 23 24 23 20 20 21 19 18 16 15 14 14 17 17 15 13 14 15 18 18 18 18 16 14 13 14 14 13 13 13 13 13 12 11 10 10 10 10 10 9 8 6 5 5 5 5 5 5 6 6 6 6 6 6 6 6 6 6 6 6
30 29 31 31 30 30 31 31 27 25 25 24 26 28 31 30 29 32 34 32 31 28 25 22 21 21 22 21 20 18 18 16 14 16 16 15 18 21 23 22 20 20 20 20 19 17 17 16 15 19 20 16 15 15 14 16 18 19 18 17 15 14 14 14 14 14 15 14 14 14 13 12 11 11 11 11 10 9 8 7 6 6 5 5 5 5 6 6 7 7 7 7 7 7 7 6 6
27 30 32 33 31 30 31 31 28 27 26 23 26 29 29 29 29 31 35 34 32 28 25 22 20 21 22 22 21 20 18 16 14 14 14 13 17 21 22 21 20 20 20 20 19 19 20 19 17 20 21 19 17 15 15 16 16 18 19 18 17 15 14 15 15 16 16 15 15 15 14 13 13 13 12 12 11 11 10 9 8 7 6 6 5 5 5 6 6 7 7 8 8 7 7 7 7
28 33 34 33 32 33 33 31 29 30 26 23 26 26 26 28 30 30 30 28 26 24 23 23 23 22 22 22 23 22 20 17 14 15 17 17 16 17 18 18 18 20 21 21 21 22 23 21 19 21 22 21 19 16 16 16 16 19 20 19 18 16 15 15 15 17 17 16 16 16 15 15 15 15 14 13 12 12 11 11 10 9 7 7 6 5 5 5 6 7 7 7 7 8 8 8 8
Wind_Direction
99 75 55 43 40 24 20 29 24 36 67 91 113 122 124 117 113 118 119 118 117 120 102 83 85 90 83 81 93 94 82 92 105 102 100 104 111 112 111 108 102 103 105 106 104 102 102 102 102 102 102 100 99 102 107 104 96 90 84 78 72 70 71 74 75 75 80 84 83 80 76 79 171 188 188 197 210 203 203 205 204 205 176 145 142 129 130 129 128 131 116 114 107 86 74 80 80
92 65 53 43 43 31 23 31 25 30 60 95 119 125 125 121 122 129 122 119 122 114 97 95 93 85 80 79 89 101 90 96 108 102 102 107 103 104 108 105 100 101 103 103 100 99 98 97 98 98 97 96 99 102 102 96 90 86 80 74 70 70 72 75 78 79 83 91 94 93 97 129 178 197 196 201 208 201 202 201 203 202 187 160 147 148 144 136 142 143 124 123 114 96 85 79 75
87 51 43 38 32 14 20 26 25 33 68 106 122 129 129 126 127 130 122 121 120 111 111 109 97 89 88 86 87 100 95 104 112 102 106 113 102 99 102 100 97 99 100 99 95 92 90 91 93 92 92 94 98 98 94 89 85 81 76 73 71 72 73 75 78 79 84 93 102 107 115 135 148 175 188 200 206 201 201 202 207 202 191 160 154 179 155 148 158 144 127 135 131 106 92 79 80
60 27 19 30 24 355 5 22 23 20 71 123 131 136 132 125 123 125 118 117 118 116 123 112 98 93 99 102 103 99 89 108 118 108 112 114 106 105 100 98 96 97 97 95 90 85 83 84 85 85 88 92 94 93 87 82 80 78 76 75 74 74 75 77 81 83 84 91 102 112 110 114 121 135 168 192 198 200 200 199 206 202 182 149 163 204 172 175 183 153 135 146 138 103 94 92 100
319 329 345 5 20 354 351 8 19 22 36 137 144 141 140 129 122 125 119 120 129 126 118 112 104 98 103 112 120 111 103 125 122 110 117 124 112 111 103 100 98 97 95 91 87 82 79 78 80 83 87 90 91 88 83 79 80 81 80 79 76 74 74 76 78 78 76 81 85 85 85 90 108 128 141 155 176 193 196 193 193 185 165 151 176 213 195 182 188 173 155 158 144 106 106 110 112
298 304 340 356 360 356 345 348 12 44 58 145 149 143 144 135 127 132 127 126 132 125 120 119 110 105 108 117 125 122 124 130 122 110 118 136 118 113 109 104 101 99 96 92 87 83 80 79 79 83 85 87 86 83 81 81 85 85 82 80 77 73 73 76 76 73 70 71 72 76 85 91 99 112 116 116 131 153 171 177 161 135 136 156 177 203 210 184 185 187 165 159 145 127 122 118 115
277 292 353 358 352 360 345 347 24 54 136 178 161 147 146 145 140 137 133 132 131 132 138 124 112 105 105 119 119 123 133 130 125 114 118 134 124 115 113 108 105 102 98 93 89 86 83 80 80 81 83 84 83 81 81 83 86 86 83 80 78 75 74 77 78 77 75 74 76 80 89 90 90 95 98 101 109 120 131 130 116 110 118 134 151 173 189 156 157 160 143 141 131 126 124 124 121
222 250 11 2 354 7 1 353 16 11 228 186 167 154 154 160 152 139 136 140 136 137 142 120 107 100 97 124 121 126 136 129 127 123 121 129 124 118 116 114 110 103 98 95 91 88 84 81 80 79 79 80 81 82 82 82 82 82 80 78 77 77 77 79 80 79 78 81 85 88 90 90 89 91 93 95 98 102 106 102 99 101 105 108 114 124 119 107 105 102 113 122 121 121 119 123 122
179 178 99 45 4 8 13 5 11 341 225 169 172 165 159 160 151 139 136 142 141 137 133 110 96 98 102 134 131 134 138 129 128 126 125 126 125 122 118 116 113 106 99 94 91 88 85 82 80 78 77 77 79 81 82 80 79 79 79 78 78 76 76 78 81 81 82 85 89 90 90 90 90 91 93 93 95 96 96 95 96 99 101 103 106 108 102 97 95 94 101 106 110 116 117 118 117
173 184 62 65 22 6 355 7 25 355 342 169 187 169 153 152 155 147 134 134 138 131 121 108 93 94 105 131 139 140 140 132 129 126 127 128 129 127 120 118 113 108 101 94 90 87 86 83 80 78 78 79 79 79 80 80 80 81 81 80 78 76 75 77 82 85 87 89 91 91 90 88 88 91 93 93 99 100 96 95 98 102 102 104 105 102 97 95 95 96 99 102 107 112 114 113 112
162 191 359 24 15 5 348 350 6 348 309 207 185 162 147 147 156 148 132 138 147 133 123 119 99 87 102 124 142 145 145 137 133 131 131 129 127 127 124 121 112 107 102 95 89 87 86 82 79 78 80 81 82 81 80 80 80 81 81 79 78 78 77 78 84 89 91 92 92 90 87 86 89 93 96 98 102 102 98 96 97 99 100 99 99 97 96 95 96 97 100 104 108 110 110 109 109
129 100 34 21 10 3 350 348 358 352 294 206 175 159 146 145 155 153 143 147 155 137 125 119 94 89 99 124 150 153 150 142 137 135 133 126 122 125 122 118 111 106 102 97 92 87 84 81 79 78 81 84 85 85 84 82 81 80 79 79 79 80 82 83 86 91 94 95 93 90 88 89 92 94 97 99 100 99 98 96 95 96 96 95 94 94 95 96 97 98 101 104 106 107 107 107 106
88 63 6 18 16 16 359 356 9 3 277 182 171 161 149 152 161 160 148 144 145 131 125 113 91 89 97 120 151 160 151 146 142 137 136 129 124 123 118 116 112 107 102 97 93 89 84 81 79 79 81 84 87 88 86 84 81 79 78 78 80 82 85 88 90 94 96 97 95 92 91 93 93 93 94 95 97 97 96 96 96 96 95 96 95 94 95 97 99 100 102 102 103 104 103 102 103
107 11 343 13 16 23 8 359 7 18 148 166 166 163 156 155 159 152 145 149 146 134 134 120 95 94 106 123 138 163 158 149 145 139 137 133 127 125 122 120 115 108 102 98 95 90 85 82 80 81 81 82 85 86 86 85 83 80 78 77 80 84 88 91 94 95 96 97 95 94 94 93 93 92 93 94 96 96 95 95 96 96 97 98 98 97 97 97 99 100 101 101 102 102 101 101 102
152 160 19 19 8 20 17 6 357 146 136 153 158 157 159 155 154 154 157 165 156 146 147 117 91 95 106 121 139 153 160 152 147 139 136 134 127 124 125 123 116 108 102 99 96 91 86 84 82 82 82 82 83 83 84 85 85 82 79 79 81 86 89 92 94 95 95 96 95 95 94 93 92 92 92 93 94 94 94 94 95 96 97 99 99 99 99 98 98 99 100 100 101 101 101 101 102
181 176 41 11 352 29 34 24 25 120 132 140 148 151 159 153 152 161 172 177 164 168 176 134 97 89 97 101 142 147 151 155 149 139 135 134 127 125 127 125 116 106 102 101 98 93 87 85 83 83 83 83 81 81 84 85 85 83 80 79 80 83 87 90 94 95 97 97 97 97 96 95 94 93 92 91 92 94 94 93 93 94 96 97 98 99 99 99 99 100 100 99 99 99 99 100 101
193 192 90 13 3 41 43 38 51 103 130 135 142 150 158 155 151 165 181 184 177 178 182 150 113 95 107 111 137 147 150 157 153 143 139 136 131 128 128 124 117 107 104 102 100 96 91 87 85 84 85 85 82 80 82 84 84 82 80 78 76 77 81 85 89 92 95 98 100 101 101 100 99 99 96 94 93 94 93 91 92 94 96 97 97 98 98 99 101 101 101 100 100 100 100 100 100
201 207 129 28 22 38 31 40 48 84 131 137 144 149 157 161 156 165 183 187 182 179 185 181 134 107 113 116 128 143 150 157 158 151 145 142 137 133 132 128 119 110 106 104 101 99 95 92 88 86 87 85 84 81 80 82 84 84 80 78 76 76 77 77 81 86 89 93 99 103 104 104 103 101 98 96 96 95 92 90 91 92 93 94 95 96 96 98 100 101 103 105 105 103 104 103 101
209 215 202 27 30 33 351 31 40 57 142 144 153 155 154 161 162 170 184 190 190 185 188 194 147 119 110 114 120 128 149 162 162 158 151 145 140 136 138 136 126 114 108 105 103 102 101 96 91 88 88 86 85 83 82 83 86 86 82 82 80 78 76 73 76 79 82 86 92 98 99 100 99 98 97 96 97 96 94 92 92 91 91 91 93 94 96 99 101 104 106 108 109 108 108 106 105
214 220 198 15 15 57 326 349 38 32 162 150 155 165 159 157 166 177 185 191 194 192 198 195 169 175 125 116 124 123 141 171 170 166 156 147 141 139 141 140 131 119 111 107 106 106 105 101 96 91 90 89 88 88 87 87 87 85 84 84 81 78 76 75 74 74 79 84 87 92 93 94 94 94 95 95 95 96 96 96 95 94 94 93 93 93 96 100 103 106 108 111 112 110 109 109 109
207 217 193 351 275 138 347 346 36 34 168 157 152 163 163 160 166 181 191 193 193 195 202 195 183 195 161 129 139 134 136 162 175 173 160 149 144 142 141 137 131 124 116 111 109 110 107 103 101 96 94 93 93 94 94 92 87 84 82 81 80 79 78 81 78 74 80 85 86 88 90 91 91 91 93 94 94 94 95 95 95 93 93 94 94 95 98 101 104 105 108 111 110 108 108 108 109
201 212 191 133 281 183 157 52 52 56 147 158 160 166 180 186 178 187 193 192 197 203 203 197 196 198 177 149 147 144 146 157 169 177 166 153 148 145 142 138 134 130 121 113 109 111 109 105 104 101 99 98 99 102 102 99 93 88 83 79 81 81 82 87 86 83 84 86 88 90 93 94 92 91 92 94 95 94 94 92 91 90 90 91 94 95 98 102 103 104 107 108 106 105 106 106 107
201 213 195 164 166 172 156 151 96 81 124 150 170 180 209 213 198 198 196 195 203 207 202 197 197 195 184 171 156 151 159 164 169 177 171 160 154 148 146 147 143 136 126 117 110 111 112 108 105 105 103 102 104 109 109 103 98 95 89 82 83 84 85 89 90 89 91 92 91 93 99 101 97 95 94 95 95 94 93 91 88 87 86 87 91 94 96 98 100 103 105 103 101 101 104 105 105
204 213 204 193 221 196 178 187 144 109 125 144 170 189 216 221 213 209 200 196 202 197 196 202 201 196 192 186 168 162 165 162 165 176 173 166 159 152 151 152 147 141 133 123 115 113 116 112 107 107 107 106 111 117 112 104 100 99 96 93 91 87 86 89 90 90 92 94 92 94 100 103 102 99 98 97 95 94 92 90 88 86 85 85 88 91 93 94 96 99 99 96 97 99 102 102 102
208 215 206 190 192 198 192 193 166 154 152 139 160 184 194 221 224 218 205 190 194 189 190 209 215 204 192 184 170 168 169 159 158 168 174 170 162 156 155 153 148 145 139 129 123 120 122 118 110 109 109 112 118 120 114 108 105 101 99 98 97 93 90 90 90 88 88 91 93 96 100 101 102 100 98 96 95 95 92 90 89 87 86 86 88 90 92 92 92 93 94 94 96 97 98 98 99
204 213 205 189 184 197 195 189 188 197 187 149 161 184 175 223 224 216 205 187 188 190 190 202 215 218 206 182 170 165 171 160 156 162 171 174 166 160 159 156 153 150 144 137 134 130 129 124 116 111 109 114 121 119 116 112 108 106 101 98 99 99 96 90 86 86 85 86 90 94 97 99 101 101 100 99 96 95 93 91 90 89 89 89 90 90 91 91 90 91 93 94 95 96 96 97 97
202 208 209 200 194 198 198 191 200 215 206 183 193 207 197 240 221 209 202 188 185 189 193 191 197 221 227 188 179 170 170 158 151 157 166 177 173 164 164 164 159 154 150 146 146 141 135 131 125 116 112 115 119 118 118 115 110 109 106 103 103 102 97 91 87 86 83 79 82 86 90 95 99 102 102 100 97 96 96 94 94 94 94 92 91 90 89 89 90 92 93 93 93 94 95 95 95
207 206 211 211 203 192 191 194 203 213 210 210 209 222 263 277 248 218 203 189 185 187 194 191 191 217 227 195 186 171 171 167 151 151 161 174 178 173 171 172 168 160 157 153 152 150 143 140 136 125 117 116 116 114 115 114 112 111 110 108 104 99 95 92 90 88 85 80 81 83 84 89 94 99 101 100 98 98 98 98 100 99 97 94 91 90 89 89 90 91 92 91 92 92 93 94 94
215 211 210 214 211 194 188 199 207 204 207 218 212 221 269 286 277 221 195 185 187 188 193 196 196 212 217 196 190 178 180 186 168 155 165 173 181 185 181 179 178 167 163 159 156 157 151 146 142 133 123 118 114 109 110 112 115 114 111 106 100 99 98 94 90 87 86 85 83 83 84 86 88 92 97 99 100 102 101 101 103 101 98 95 93 92 92 93 93 92 93 93 92 92 92 93 92
208 215 211 212 217 207 196 200 211 212 214 219 214 221 258 292 286 213 190 183 184 184 190 200 199 208 214 197 197 194 189 193 185 171 172 178 184 190 188 187 186 176 169 164 161 162 156 150 147 141 132 125 120 111 107 107 110 109 106 104 101 101 100 94 90 86 85 86 86 84 83 85 87 90 95 100 103 105 104 102 102 101 99 97 96 95 94 93 94 95 96 96 95 94 93 92 91
194 200 207 208 219 221 209 204 220 226 226 222 219 229 244 288 279 205 194 190 185 181 188 200 195 201 215 206 203 202 195 197 195 182 175 182 187 187 191 193 193 186 179 169 162 163 160 154 152 148 139 129 121 113 108 108 113 116 114 113 111 108 104 98 94 92 88 85 86 86 85 86 88 93 97 100 104 106 105 102 100 100 100 99 99 98 97 96 95 95 96 96 96 96 94 92 91
196 191 199 199 212 226 214 206 222 232 234 228 226 234 239 267 267 203 197 196 193 188 192 201 195 200 215 211 206 202 199 199 194 185 176 181 187 187 190 194 196 193 185 177 166 161 160 158 157 154 146 131 119 113 111 116 126 131 125 120 118 114 111 106 100 98 94 88 85 87 89 89 91 93 95 98 102 106 105 103 101 101 100 100 100 98 98 98 97 96 95 95 95 96 94 91 91
201 190 194 188 194 221 213 207 221 233 240 235 229 232 233 251 263 208 201 197 194 194 197 201 197 205 213 209 206 202 199 197 194 191 182 182 185 184 189 192 195 196 188 183 174 164 162 161 160 159 154 141 120 113 113 117 126 129 125 121 115 111 110 109 107 102 98 95 91 91 92 93 93 94 95 98 100 102 104 103 102 102 100 99 98 96 95 96 96 96 95 95 96 95 93 92 94
199 195 203 198 199 213 205 199 223 240 243 239 231 229 226 233 243 208 206 200 194 195 200 200 197 207 214 210 208 204 199 197 197 200 194 187 186 182 186 190 191 195 191 186 183 174 169 164 161 164 160 148 126 111 109 113 119 121 124 123 114 109 109 109 110 107 104 102 99 97 97 97 96 96 97 99 98 97 99 101 101 100 100 100 97 95 94 94 95 96 97 97 96 94 94 95 97
198 197 207 208 216 218 203 199 226 249 249 240 234 231 223 219 216 213 216 213 206 202 203 200 198 207 217 216 211 205 199 200 202 205 202 193 191 186 185 189 189 192 191 188 188 182 177 173 165 165 161 153 138 115 109 110 113 119 124 125 119 116 116 112 110 108 108 106 102 103 102 99 99 100 99 99 99 96 96 98 100 99 100 99 97 97 97 97 96 97 99 100 96 93 95 98 101
190 191 207 208 221 234 229 225 239 256 255 245 243 237 225 216 212 217 234 228 218 212 208 204 202 206 215 219 217 210 200 201 207 207 206 202 199 194 189 190 188 191 192 189 190 185 183 181 170 168 162 156 148 126 119 114 114 124 127 127 123 121 122 118 109 106 109 107 104 105 106 104 103 101 100 100 101 101 99 98 99 99 99 98 98 99 100 100 99 98 98 99 97 94 97 102 103
183 174 193 198 205 227 234 242 258 259 250 246 251 239 226 220 216 218 229 233 221 215 212 212 212 210 213 219 219 216 206 202 207 206 207 208 204 200 197 195 189 192 195 191 191 188 185 186 179 173 165 158 151 139 131 121 121 128 129 128 128 126 129 123 112 108 109 109 107 106 108 109 110 106 104 105 106 105 104 102 100 99 99 99 103 105 103 104 102 100 99 97 96 96 100 102 102
192 178 172 171 167 189 233 253 262 258 249 248 249 239 228 222 218 217 219 228 221 213 214 219 225 222 218 218 218 217 216 209 205 206 209 208 206 205 202 201 197 197 197 192 193 192 189 188 186 179 170 161 155 151 152 137 131 136 135 136 135 134 138 131 118 114 110 110 110 107 107 109 113 115 113 114 114 112 111 110 108 104 104 107 108 106 105 106 102 98 97 95 97 102 106 104 104
199 183 162 150 150 181 232 244 251 254 250 243 242 239 232 221 216 217 218 224 227 223 224 224 229 228 218 215 216 217 218 216 208 204 208 210 208 210 209 208 205 201 198 193 194 196 193 191 190 185 175 168 163 162 163 155 143 143 143 144 142 140 143 135 127 124 117 115 112 108 110 110 114 120 119 121 120 118 118 117 116 114 114 114 109 105 105 105 101 98 99 99 100 106 109 108 108
196 185 161 143 154 204 224 228 241 252 240 228 235 239 232 225 219 221 221 221 226 235 237 231 230 225 214 212 215 214 209 210 215 208 205 212 212 212 213 212 211 206 200 197 196 198 197 194 193 190 183 176 173 171 169 168 159 151 148 147 147 151 147 137 134 133 124 120 119 117 117 113 113 118 121 128 126 120 119 117 117 115 110 109 106 105 105 103 99 100 104 105 106 107 107 108 111
196 190 163 141 161 216 228 244 259 263 245 229 236 236 227 228 226 228 230 225 224 228 231 235 231 216 206 207 210 210 205 200 213 216 205 210 215 213 213 212 214 211 207 202 198 200 201 197 195 193 191 184 179 179 179 177 171 159 155 153 153 160 163 151 143 137 126 123 127 124 123 124 124 127 133 140 134 125 125 119 117 114 107 105 104 101 99 98 100 102 103 104 106 107 106 107 109
195 192 170 150 162 196 215 238 256 261 252 240 234 226 223 232 231 233 237 232 223 218 218 227 224 206 202 205 205 208 207 198 205 217 210 210 214 213 212 213 218 218 216 211 204 202 202 200 198 197 194 191 187 187 187 186 177 162 158 161 159 161 172 167 150 141 134 131 135 132 132 139 140 138 142 150 146 138 131 124 120 116 108 104 100 95 91 91 93 96 98 101 104 104 106 109 109
190 185 176 163 169 189 203 217 236 249 248 245 229 207 210 225 229 235 234 232 224 217 218 221 219 211 206 208 208 208 207 202 206 217 216 213 214 215 213 214 220 224 224 219 211 205 200 199 199 198 196 195 196 194 194 193 181 162 159 167 166 164 174 170 154 150 145 140 140 138 139 148 144 140 148 156 152 142 132 130 127 117 109 104 98 92 87 85 85 87 92 98 102 105 108 111 111
184 170 168 166 171 181 191 206 227 245 251 259 251 216 214 217 219 228 226 225 226 223 226 224 221 224 216 209 210 207 207 210 212 213 216 214 212 214 215 215 220 225 230 227 219 210 202 201 200 198 197 198 201 200 199 199 189 170 163 168 170 168 176 173 162 161 151 146 144 139 141 149 148 147 153 152 141 136 135 136 133 121 111 105 100 93 86 83 83 84 87 94 104 110 111 113 113
175 163 163 168 173 173 180 194 201 220 237 247 259 244 231 221 220 226 223 218 225 226 227 227 224 224 222 214 210 211 212 214 213 208 209 212 214 216 215 215 219 225 231 231 225 216 206 204 202 199 198 199 203 204 201 201 197 183 170 170 170 169 176 176 171 169 160 153 146 139 142 145 147 147 147 143 132 131 136 137 136 130 121 112 106 101 95 89 87 86 89 96 106 112 113 116 115
175 172 171 172 179 183 187 188 186 202 220 218 229 248 247 235 228 228 228 222 217 208 210 220 225 221 223 220 216 221 219 214 215 211 207 213 220 222 218 215 220 229 235 234 230 223 211 206 204 202 201 202 203 205 203 201 202 195 182 177 172 170 175 174 171 172 170 162 147 140 141 140 142 143 139 139 130 132 142 145 146 140 133 126 116 112 106 99 96 93 95 102 108 112 114 114 113
182 187 182 176 183 190 194 191 186 198 209 198 199 229 251 253 240 237 249 242 223 209 205 217 225 220 222 221 218 220 214 212 219 219 213 217 223 226 223 218 224 235 239 238 232 224 213 207 205 203 204 205 205 205 204 202 203 200 194 189 179 173 175 173 172 172 172 170 158 145 138 136 141 142 140 137 133 142 153 153 153 147 136 128 121 119 113 105 103 101 102 106 108 110 111 111 109
187 193 188 183 188 191 193 191 188 194 201 193 187 209 240 250 248 253 258 246 231 223 221 228 229 221 217 216 215 211 206 211 219 218 214 216 221 227 230 224 224 230 235 239 236 227 216 210 208 204 205 207 206 207 205 203 203 200 198 200 190 181 180 176 174 174 172 173 169 157 146 141 145 149 147 140 137 151 157 151 152 147 135 126 123 121 116 110 109 109 110 110 109 108 109 110 109
189 195 188 181 186 192 195 193 190 195 195 181 170 197 237 247 247 253 255 243 230 220 220 231 233 229 220 214 215 214 211 213 218 217 215 215 217 223 230 229 224 224 229 235 237 232 221 212 210 208 207 208 206 207 207 204 203 199 198 205 199 190 189 184 179 177 177 178 174 169 162 155 155 156 153 143 139 147 148 146 150 145 137 134 129 121 118 119 116 115 115 113 109 109 110 110 111
193 195 186 175 181 193 197 199 199 200 190 174 168 196 230 238 240 247 251 246 235 226 225 230 229 235 234 218 213 218 221 221 221 222 219 217 216 218 225 229 224 223 227 229 230 233 230 219 214 211 208 210 208 208 208 205 203 199 196 206 206 197 195 193 189 185 182 183 181 178 170 162 161 158 151 146 141 142 143 144 151 148 141 138 132 123 123 126 121 119 120 115 112 111 112 115 117
198 195 189 182 186 194 198 203 206 200 184 177 181 203 221 228 231 237 246 245 241 240 239 233 224 232 239 223 210 211 221 225 226 226 223 221 221 221 224 227 224 223 226 228 228 234 245 241 232 225 216 212 211 210 210 207 205 200 194 201 207 201 199 200 199 195 190 188 189 190 178 165 162 157 150 147 143 143 146 149 154 152 144 140 136 132 132 130 123 123 124 119 119 118 118 121 124
197 194 191 190 193 196 199 206 211 206 189 185 192 208 220 229 230 232 240 239 240 245 246 238 231 233 236 227 214 206 211 221 224 225 223 221 221 221 224 227 226 222 221 225 226 228 239 246 243 239 233 225 218 214 215 212 207 202 195 198 203 201 201 202 203 202 199 195 195 200 192 171 161 155 148 146 146 151 154 155 160 157 148 145 144 142 139 132 129 133 131 126 127 131 131 131 129
199 196 193 193 196 194 185 193 208 204 196 200 203 211 221 230 231 232 232 230 234 242 244 243 242 240 241 235 223 213 213 217 217 222 226 223 219 218 220 223 224 220 218 223 229 227 231 237 235 230 232 238 233 222 218 216 212 206 199 198 200 201 202 203 203 201 202 202 199 200 200 185 169 160 153 151 156 161 160 160 168 168 159 151 150 147 140 139 148 149 142 138 141 147 145 142 142
196 202 197 193 194 190 173 176 197 192 197 215 214 215 225 231 233 237 237 234 237 239 239 243 246 244 245 242 232 223 222 220 212 214 224 224 220 218 219 219 218 217 218 225 233 229 226 235 236 224 216 225 238 235 226 220 216 211 205 201 200 201 203 204 204 202 201 204 204 202 200 194 183 173 164 162 164 163 160 164 173 173 165 160 161 159 151 154 162 158 151 151 154 159 157 154 159
183 195 202 198 193 190 178 177 192 190 196 220 221 215 224 230 235 240 242 242 239 238 239 244 249 248 248 248 240 231 228 225 214 213 223 226 221 218 220 221 219 221 224 229 234 232 231 235 236 230 222 217 223 235 234 227 221 216 211 206 203 203 205 205 204 204 202 203 205 205 202 197 191 184 175 170 168 165 165 170 176 173 168 171 174 169 164 166 168 164 163 165 165 169 168 163 166
190 190 197 199 194 194 187 182 188 185 189 216 228 221 219 225 235 238 236 236 234 235 240 246 252 252 248 247 246 243 240 236 223 220 231 233 219 214 219 221 221 224 229 233 234 234 236 237 231 229 232 228 219 218 221 225 227 224 217 212 208 207 208 206 205 207 206 205 205 206 205 200 194 190 184 178 173 168 169 171 177 178 175 177 182 178 174 176 173 169 174 176 174 176 177 172 171
201 196 194 198 196 196 193 189 187 182 187 213 232 233 228 227 234 232 228 230 230 231 239 246 250 251 249 246 244 245 246 244 232 223 231 230 216 215 219 218 218 223 228 232 232 230 232 237 234 226 229 234 231 219 211 214 225 228 222 216 214 212 212 210 208 209 209 207 206 207 207 204 198 195 192 186 180 175 173 172 176 182 181 181 187 190 189 189 184 181 184 185 182 183 185 180 176
196 200 198 198 195 191 192 193 187 184 196 215 225 235 240 236 233 229 227 231 230 228 238 245 244 246 249 247 241 239 243 245 237 222 221 225 223 221 217 211 212 220 225 227 227 225 225 231 232 225 223 230 233 226 216 211 217 226 224 218 217 218 218 216 214 213 212 210 208 208 207 207 205 200 196 193 188 183 181 179 180 183 183 183 188 193 201 205 201 195 195 194 191 191 191 187 183